#timestamp,LO_Frequency,Hit,StdDev 
1681027215.8,286046997.5,P
1681027235.7,286046999.3,N
1681027255.5,286046999.0,N
1681027275.3,286046997.3,N
1681027295.2,286046994.9,Y
1681027315.0,286046997.9,P
1681027315.9,286046997.9,P
1681027335.8,286046998.0,P
1681027355.6,286046997.4,Y
1681027375.4,286047002.1,P
1681027395.3,286047002.4,N
1681027415.1,286046999.9,N
1681027435.8,286047000.1,N
1681027455.7,286047010.6,Y
1681027475.5,286047007.9,P
1681027495.4,286047007.9,N
1681027515.2,286047006.9,N
1681027535.0,286047004.8,N
1681027535.9,286047004.8,N
1681027555.8,286047005.8,N
1681027575.6,286047005.8,N
1681027595.5,286047003.4,N
1681027615.3,286047004.0,N
1681027635.1,286047001.6,N
1681027655.9,286047001.4,N
1681027675.7,286047004.0,N
1681027695.5,286047003.5,N
1681027715.4,286047003.4,N
1681027735.2,286047001.9,N
1681027755.0,286047002.3,N
1681027756.0,286047002.3,N
1681027775.8,286047001.3,N
1681027795.6,286047002.2,N
1681027815.5,286047002.1,N
1681027835.3,286047002.4,N
1681027855.1,286046999.7,N
1681027875.9,286047000.5,N
1681027895.7,286047000.6,N
1681027915.5,286047001.1,N
1681027935.4,286047000.6,N
1681027955.2,286047000.4,N
1681027975.1,286047000.4,N
1681027976.0,286047000.4,N
1681027995.8,286047000.0,N
1681028015.6,286047000.8,N
1681028035.5,286047000.2,N
1681028055.3,286047000.1,N
1681028075.1,286047000.0,N
1681028095.9,286046998.1,N
1681028115.6,286046998.1,N
1681028135.4,286047003.2,N
1681028155.2,286047010.6,Y
1681028175.1,286047010.3,P
1681028176.0,286047010.3,N
1681028195.8,286047008.0,N
1681028215.7,286047011.9,Y
1681028235.5,286046995.7,P
1681028255.3,286046994.2,N
1681028275.2,286046992.0,N
1681028295.0,286046992.5,N
1681028295.9,286046992.5,N
1681028315.7,286046990.2,N
1681028335.6,286046992.4,N
1681028355.4,286046993.1,N
1681028375.3,286046992.6,N
1681028395.1,286046990.6,N
1681028396.0,286046990.6,N
1681028415.8,286046990.5,N
1681028435.7,286046990.9,N
1681028455.5,286046993.1,N
1681028475.4,286046993.1,N
1681028495.2,286046992.9,N
1681028515.0,286047006.0,N
1681028515.9,286047006.0,N
1681028535.8,286047005.5,N
1681028555.6,286047003.9,N
1681028575.4,286046998.5,N
1681028595.3,286046997.4,N
1681028615.1,286046995.3,N
1681028635.9,286046995.1,N
1681028655.7,286046996.1,N
1681028675.5,286046993.4,N
1681028695.4,286046993.5,N
1681028715.2,286046993.9,N
1681028735.1,286046994.1,N
1681028736.0,286046994.1,N
1681028755.8,286046994.6,N
1681028775.6,286046994.4,N
1681028795.5,286046994.4,N
1681028815.3,286046992.0,N
1681028835.2,286046992.1,N
1681028855.9,286046992.4,N
1681028875.7,286046993.1,N
1681028895.6,286046990.4,N
1681028915.4,286046991.1,N
1681028935.3,286046991.2,N
1681028955.1,286046989.3,N
1681028956.0,286046989.3,N
1681028975.9,286046989.9,N
1681028995.7,286046989.9,N
1681029015.8,286046986.9,N
1681029035.7,286046987.3,N
1681029055.5,286046987.5,N
1681029075.3,286046988.0,N
1681029095.2,286046987.0,Y
1681029115.0,286046993.9,P
1681029115.9,286046993.9,P
1681029135.8,286046993.8,P
1681029155.6,286046994.2,Y
1681029175.4,286047000.0,P
1681029195.3,286047000.0,N
1681029215.1,286046999.9,N
1681029235.8,286047001.0,N
1681029255.7,286046999.7,N
1681029275.5,286047002.1,N
1681029295.4,286047002.8,N
1681029315.2,286047000.8,N
1681029335.0,286046999.9,N
1681029335.9,286046999.9,N
1681029355.8,286047001.0,N
1681029375.7,286047000.9,N
1681029395.5,286046998.1,N
1681029415.4,286046998.2,N
1681029435.2,286047001.1,N
1681029455.1,286046999.9,N
1681029456.0,286046999.9,N
1681029475.8,286047002.3,N
1681029495.6,286046999.7,N
1681029515.5,286047002.3,N
1681029535.3,286047002.5,N
1681029555.2,286047002.8,N
1681029575.9,286046999.8,N
1681029595.7,286046999.7,N
1681029615.6,286047002.8,N
1681029635.4,286046999.8,N
1681029655.2,286047002.8,N
1681029675.1,286046999.7,N
1681029676.0,286046999.7,N
1681029695.8,286047002.3,N
1681029715.7,286047002.7,N
1681029735.5,286047000.1,N
1681029755.3,286047001.0,N
1681029775.2,286047000.6,N
1681029795.0,286046998.1,N
1681029795.9,286046998.1,N
1681029815.8,286047000.6,N
1681029835.6,286047000.1,N
1681029855.4,286047001.9,N
1681029875.3,286047001.6,N
1681029895.1,286047002.7,N
1681029915.8,286046999.7,N
1681029935.7,286047000.2,N
1681029955.5,286047000.0,N
1681029975.4,286046998.6,N
1681029995.2,286046998.6,N
1681030015.0,286047000.3,N
1681030015.9,286047000.3,N
1681030035.8,286046999.8,N
1681030055.6,286046999.9,N
1681030075.5,286047000.6,N
1681030095.3,286047002.3,N
1681030115.1,286047001.5,N
1681030135.9,286047000.2,N
1681030155.7,286047000.2,N
1681030175.6,286047000.5,N
1681030195.4,286047001.2,N
1681030215.2,286047000.9,N
1681030235.1,286047000.5,N
1681030236.0,286047000.5,N
1681030255.8,286047001.0,N
1681030275.6,286046998.1,N
1681030295.5,286047000.7,N
1681030315.3,286047001.0,N
1681030335.2,286046998.2,N
1681030355.9,286046998.1,N
1681030375.7,286046998.1,N
1681030395.6,286046998.4,N
1681030415.4,286046999.0,N
1681030435.2,286046999.2,N
1681030455.1,286046999.2,N
1681030456.0,286046999.2,N
1681030475.8,286046999.1,N
1681030495.7,286046998.1,N
1681030515.5,286046998.8,N
1681030535.3,286046998.7,N
1681030555.2,286046999.3,N
1681030575.0,286046998.7,N
1681030575.9,286046998.7,N
1681030595.8,286046998.4,N
1681030615.6,286047000.8,N
1681030635.4,286047000.8,N
1681030655.3,286047001.2,N
1681030675.1,286047000.9,N
1681030695.9,286046998.8,N
1681030715.7,286046998.5,N
1681030735.5,286046999.3,N
1681030755.4,286046998.2,N
1681030775.2,286046998.7,N
1681030795.0,286046998.8,N
1681030795.9,286046998.8,N
